Charlottetown, Prince Edward Island

7:36 PM AST on January 21, 2018 (GMT -0400)
Charlottetown

Weather History for CYYG - May, 2014

Change the Weather History Date:

Saturday, May 24, 2014

  Actual Average Record
Temperature  
Mean Temperature 40 °F -  
Max Temperature 44 °F 65 °F 73 °F (2002)
Min Temperature 37 °F 47 °F 33 °F (2007)
Degree Days  
Heating Degree Days 24    
Moisture  
Dew Point 38 °F    
Average Humidity 92    
Maximum Humidity 100    
Minimum Humidity 76    
Precipitation  
Precipitation 0.04 in 0.12 in - ()
Sea Level Pressure  
Sea Level Pressure 30.04 in    
Wind  
Wind Speed 10 mph ()    
Max Wind Speed 22 mph    
Max Gust Speed 26 mph    
Visibility 8.8 miles    
Events Rain    
Averages and records for this station are not official NWS values.
T = Trace of Precipitation, MM = Missing Value Source: Averaged Metar Reports

Daily Weather History Graph

Daily Weather History Graph

Search for Another Location

Airport or City:

Trip Planner

Search our weather history database for the weather conditions in past years. The results will help you decide how hot, cold, wet, or windy it might be!

Date:

Astronomy

May. 24, 2014 Rise Set
Actual Time 5:30 AM ADT 8:49 PM ADT
Civil Twilight 4:53 AM ADT 9:25 PM ADT
Nautical Twilight 4:05 AM ADT 10:14 PM ADT
Astronomical Twilight 3:05 AM ADT 11:15 PM ADT
Moon 3:12 AM ADT (5/24) 4:27 PM ADT (5/24)
Length of Visible Light 16h 32m
Length of Day
15h 19m
Waning Crescent, 18% of the Moon is Illuminated
May 24
Waning Crescent
May 28
New
Jun 5
First Quarter
Jun 13
Full
Jun 19
Last Quarter

Hourly Weather History & Observations

Time (ADT) Temp. Windchill Dew Point Humidity Pressure Visibility Wind Dir Wind Speed Gust Speed Precip Events Conditions
12:00 AM 39.2 °F 34.2 °F 39.2 °F 100% 30.00 in 6.0 mi NNW 6.9 mph - N/A   Light Drizzle
1:00 AM 39.2 °F 33.6 °F 39.2 °F 100% 29.99 in 6.0 mi NNW 8.1 mph - N/A   Light Drizzle
2:00 AM 39.2 °F 35.0 °F 39.2 °F 100% 29.98 in 6.0 mi NNW 5.8 mph - N/A   Light Drizzle
3:00 AM 40 °F - 40 °F 98% 29.98 in 6 mi NNW 8.1 mph - - Rain Light Drizzle
3:00 AM 39.2 °F 34.2 °F 39.2 °F 100% 29.98 in 6.0 mi North 6.9 mph - N/A   Light Drizzle
4:00 AM 39.2 °F 34.2 °F 39.2 °F 100% 29.99 in 6.0 mi North 6.9 mph - N/A   Light Drizzle
5:00 AM 39.2 °F 32.5 °F 39.2 °F 100% 29.99 in 6.0 mi North 10.4 mph - N/A   Light Drizzle
6:00 AM 39.2 °F 31.2 °F 39.2 °F 100% 30.00 in 5.0 mi North 13.8 mph - N/A   Light Drizzle
6:40 AM 39.2 °F 30.5 °F 39.2 °F 100% 30.01 in 2.0 mi NNE 16.1 mph - N/A   Light Drizzle
7:00 AM 39.2 °F 30.8 °F 39.2 °F 100% 30.02 in 2.0 mi North 15.0 mph 20.7 mph N/A   Light Drizzle
7:50 AM 41.0 °F 33.5 °F 39.2 °F 93% 30.04 in 3.0 mi NNE 13.8 mph - N/A   Light Drizzle
8:00 AM 41.0 °F 32.8 °F 39.2 °F 93% 30.04 in 2.0 mi NNE 16.1 mph - N/A   Light Drizzle
8:29 AM 41.0 °F 35.2 °F 39.2 °F 93% 30.06 in 4.0 mi North 9.2 mph 18.4 mph N/A   Light Drizzle
9:00 AM 40 °F - 39 °F 96% 30.06 in 7 mi NNE 15.0 mph - - Rain Light Drizzle
9:00 AM 41.0 °F 33.1 °F 39.2 °F 93% 30.06 in 8.0 mi North 15.0 mph 20.7 mph N/A   Light Drizzle
10:00 AM 42.8 °F 36.2 °F 39.2 °F 87% 30.07 in 10.0 mi North 12.7 mph 18.4 mph N/A   Light Drizzle
10:50 AM 42.8 °F 35.1 °F 39.2 °F 87% 30.06 in 12.0 mi North 16.1 mph 21.9 mph N/A   Overcast
11:00 AM 42.8 °F 33.8 °F 39.2 °F 87% 30.07 in 12.0 mi North 21.9 mph - N/A   Overcast
12:00 PM 42.8 °F 36.2 °F 37.4 °F 81% 30.08 in 15.0 mi North 12.7 mph 21.9 mph N/A   Overcast
12:11 PM 42.8 °F 34.5 °F 37.4 °F 81% 30.08 in 15.0 mi North 18.4 mph 26.5 mph N/A   Overcast
1:00 PM 42.8 °F 34.5 °F 37.4 °F 81% 30.07 in 15.0 mi North 18.4 mph - N/A   Overcast
1:49 PM 41.0 °F 33.9 °F 37.4 °F 87% 30.07 in 12.0 mi North 12.7 mph 24.2 mph N/A   Light Drizzle
2:00 PM 41.0 °F 33.1 °F 37.4 °F 87% 30.07 in 12.0 mi North 15.0 mph 23.0 mph N/A   Light Drizzle
3:00 PM 42 °F - 37 °F 76% 30.07 in 15 mi North 16.1 mph - - Rain Light Drizzle
3:00 PM 41.0 °F 33.5 °F 37.4 °F 87% 30.07 in 15.0 mi North 13.8 mph 24.2 mph N/A   Overcast
4:00 PM 41.0 °F 31.9 °F 35.6 °F 81% 30.06 in 15.0 mi North 19.6 mph - N/A   Overcast
5:00 PM 41.0 °F 32.5 °F 35.6 °F 81% 30.07 in 15.0 mi North 17.3 mph 26.5 mph N/A   Overcast
6:00 PM 41.0 °F 35.2 °F 35.6 °F 81% 30.06 in 15.0 mi North 9.2 mph 21.9 mph N/A   Overcast
6:36 PM 39.2 °F 31.6 °F 35.6 °F 87% 30.05 in 12.0 mi North 12.7 mph 23.0 mph N/A   Light Drizzle
7:00 PM 39.2 °F 31.6 °F 35.6 °F 87% 30.05 in 12.0 mi North 12.7 mph 19.6 mph N/A   Overcast
8:00 PM 39.2 °F 32.5 °F 37.4 °F 93% 30.07 in 5.0 mi North 10.4 mph - N/A   Light Drizzle
8:41 PM 37.4 °F 30.8 °F 37.4 °F 100% 30.06 in 5.0 mi North 9.2 mph - N/A   Overcast
9:00 PM 38 °F - 37 °F 97% 30.08 in 5 mi North 9.2 mph - - Rain Light Drizzle
9:00 PM 37.4 °F 30.8 °F 37.4 °F 100% 30.07 in 5.0 mi North 9.2 mph - N/A   Overcast
9:50 PM 39.2 °F 33.6 °F 37.4 °F 93% 30.06 in 10.0 mi North 8.1 mph - N/A   Light Drizzle
10:00 PM 39.2 °F 34.2 °F 37.4 °F 93% 30.06 in 10.0 mi North 6.9 mph - N/A   Light Drizzle
11:00 PM 39.2 °F 32.5 °F 37.4 °F 93% 30.05 in 10.0 mi North 10.4 mph - N/A   Light Drizzle